Wind_Speed
34 33 33 34 34 34 35 35 36 35 35 34 36 38 39 39 39 39 40 41 41 42 43 44 45 46 46 47 47 47 47 47 47 48 49 50 50 50 51 52 53 52 52 51
35 35 35 35 35 34 35 35 36 36 36 35 37 37 38 40 39 39 39 40 42 43 43 44 44 46 47 47 48 48 48 48 48 49 50 50 50 50 51 52 52 53 53 52
35 35 37 36 33 34 34 34 35 36 35 36 37 38 38 39 39 39 40 40 41 42 42 43 44 44 45 46 48 48 49 49 49 49 50 51 52 51 51 51 52 53 53 54
35 35 36 34 33 33 34 34 35 36 36 37 37 37 37 38 39 39 40 40 41 41 42 43 43 44 45 45 47 48 49 50 49 50 50 51 52 52 52 52 52 52 53 54
34 35 36 33 32 32 33 33 34 36 37 37 37 37 36 37 38 39 39 40 41 41 41 42 42 43 43 44 46 47 48 49 50 49 50 51 51 51 51 52 52 52 53 53
34 35 35 33 33 33 34 34 34 35 36 37 37 37 37 37 37 37 39 39 40 41 41 41 41 41 42 43 44 46 47 48 48 49 49 50 51 51 52 52 51 52 53 54
35 36 36 34 33 34 35 34 34 35 35 35 36 37 37 38 38 37 37 37 38 40 40 41 41 41 42 43 44 45 46 47 47 48 48 49 50 51 51 52 52 52 53 53
36 37 35 34 34 34 34 34 35 35 35 36 36 36 37 37 38 38 37 37 37 38 40 41 41 42 42 43 43 44 45 46 47 47 47 48 49 50 50 51 51 52 53 53
37 36 35 35 35 34 34 35 35 35 36 36 36 36 37 37 38 38 38 38 38 38 39 40 41 42 43 43 44 44 44 45 46 47 47 47 48 49 50 51 51 52 53 53
37 36 36 36 36 36 35 35 35 36 37 37 37 37 38 38 38 39 39 39 39 40 40 40 41 41 42 43 44 45 45 46 46 47 47 47 48 48 50 50 51 51 52 53
36 35 36 36 36 36 36 37 37 38 38 38 38 38 39 39 39 39 40 40 40 40 40 40 40 40 41 42 43 43 43 44 45 46 46 46 47 47 48 49 50 51 51 52
35 34 35 35 36 37 37 37 38 38 38 38 38 38 38 38 38 39 40 40 40 40 40 39 39 39 39 40 41 41 41 42 43 43 44 44 45 46 46 47 48 48 49 50
35 35 35 35 36 37 37 38 38 38 38 38 38 38 38 38 38 39 39 40 40 40 39 39 39 39 39 39 39 40 40 41 41 41 42 42 43 44 44 45 46 46 46 46
35 35 35 35 35 36 36 37 37 38 38 38 38 38 38 38 39 39 39 39 39 39 39 38 39 39 39 39 38 38 38 39 39 40 40 41 42 43 43 43 43 44 44 44
34 34 34 34 34 34 35 36 36 36 37 37 38 38 39 39 39 40 40 40 39 38 38 38 38 38 38 38 38 38 37 38 38 39 39 40 41 42 42 42 42 42 43 44
32 33 33 33 33 33 34 35 35 36 37 37 38 38 39 39 40 40 39 39 38 38 37 37 37 37 37 38 38 38 39 39 39 39 39 39 39 39 39 40 40 41 42 42
31 31 32 32 33 33 34 35 35 36 36 37 38 38 39 39 40 39 38 37 36 36 35 36 36 36 36 36 37 37 38 38 39 38 38 37 37 37 38 37 37 38 39 39
30 31 31 31 32 33 33 34 34 35 36 37 37 38 39 39 39 38 37 36 35 35 34 35 35 35 35 36 36 36 36 36 36 36 36 36 36 36 36 36 36 36 36 37
29 29 30 31 31 32 33 34 34 35 36 37 37 38 38 38 38 37 36 36 35 34 34 34 34 35 35 34 34 34 33 33 33 33 34 34 35 35 35 35 35 35 35 35
28 29 29 30 31 32 33 34 34 35 36 36 36 37 37 36 36 35 35 34 34 34 33 34 33 33 33 33 32 32 32 31 31 32 32 32 32 32 33 33 34 34 34 35
28 29 30 30 31 32 32 33 33 34 34 34 35 35 35 35 34 33 33 32 32 32 32 32 33 33 32 32 32 31 31 31 30 30 31 31 31 31 32 32 33 33 33 34
30 30 31 31 32 32 32 32 33 33 33 34 34 34 34 33 32 31 31 31 31 31 32 32 32 32 32 32 31 31 31 30 30 30 30 30 31 31 30 30 30 31 31 32
31 31 31 32 32 32 32 32 32 33 33 33 33 32 31 30 30 29 29 30 30 30 30 31 31 30 30 30 30 30 30 29 29 29 29 29 29 29 29 29 29 28 28 29
32 31 32 32 32 32 32 32 33 33 33 32 32 31 30 29 29 29 29 29 29 28 28 28 28 27 27 27 28 28 28 28 28 28 28 29 29 28 28 28 28 28 28 27
31 31 31 31 31 32 32 32 32 32 31 31 30 30 29 29 29 29 28 28 28 27 27 26 26 25 25 26 26 26 26 26 27 27 27 28 28 28 28 27 27 27 27 26
30 30 30 30 30 31 31 30 30 30 29 29 29 29 29 28 28 27 27 27 27 26 25 25 24 24 24 24 24 24 25 25 26 26 27 27 27 26 26 26 26 26 26 26
30 30 30 30 30 30 30 29 29 28 28 28 28 28 27 27 26 26 26 26 26 25 24 24 23 23 23 23 23 23 24 24 25 26 26 26 26 25 25 25 25 24 24 24
Wind_Direction
275 275 275 274 273 272 273 275 276 278 277 277 277 277 278 278 278 276 276 274 272 270 269 267 266 265 264 262 263 264 264 265 264 263 263 263 263 263 261 261 260 260 259 259
275 275 275 274 273 273 273 274 277 277 276 277 277 278 279 279 279 278 278 276 274 272 271 269 267 266 265 263 263 264 265 265 265 264 263 263 263 263 262 261 260 260 259 259
275 275 275 275 276 276 276 276 277 278 279 277 277 278 281 281 279 279 279 278 277 275 273 271 270 268 266 265 265 264 265 265 266 265 264 263 263 263 263 261 260 260 259 259
277 277 277 279 279 280 279 278 279 279 279 278 279 280 281 282 281 281 280 279 278 276 274 273 272 270 268 267 266 265 265 265 266 265 264 264 264 263 262 262 261 260 260 260
279 279 279 279 281 283 282 281 282 281 280 279 280 280 281 282 282 282 281 279 277 276 275 273 272 271 270 269 267 266 266 267 267 267 265 265 264 264 263 262 262 261 260 261
279 280 280 281 281 283 283 284 285 285 284 282 281 280 281 282 282 283 282 281 278 277 276 275 273 271 271 270 269 268 268 268 269 268 267 266 265 264 263 263 263 263 262 262
278 279 280 281 282 283 284 286 287 287 286 284 282 281 281 281 282 282 282 281 279 277 277 277 274 272 272 272 271 271 270 269 270 270 269 268 266 264 264 263 263 263 263 264
278 278 281 282 282 282 284 284 285 287 287 286 285 283 283 282 282 281 281 281 279 278 277 277 275 273 272 272 272 272 272 271 270 270 270 269 267 265 265 264 264 264 264 264
277 277 279 280 280 281 281 283 285 286 288 288 287 285 285 284 283 282 282 281 280 280 279 278 276 275 274 272 272 273 272 272 271 270 270 270 268 266 265 266 265 264 264 264
278 275 276 277 279 280 282 283 285 286 287 288 288 288 287 286 285 284 284 283 283 282 281 279 277 277 275 273 273 273 272 272 272 271 271 271 270 268 267 266 265 264 264 264
278 277 276 276 278 279 281 283 285 286 288 289 289 289 288 287 286 285 285 285 284 283 282 280 279 278 276 274 273 272 272 271 271 271 272 271 270 269 268 266 265 265 264 264
279 278 278 278 278 279 280 283 284 286 287 289 290 289 288 287 286 286 286 286 285 283 282 280 279 279 278 276 274 272 271 271 271 272 272 272 271 271 269 268 266 265 264 264
280 278 278 278 279 280 281 283 285 286 288 288 289 289 288 288 287 287 287 287 286 284 282 280 278 278 278 278 276 274 274 273 274 273 273 273 273 272 271 270 268 266 265 263
281 279 278 278 279 280 282 284 285 287 288 288 288 288 288 288 288 288 289 288 286 284 282 280 280 280 280 279 278 277 276 276 276 275 275 275 275 274 272 270 269 267 266 265
280 279 279 279 279 280 282 284 285 286 287 288 288 288 288 288 289 290 290 289 288 285 283 281 280 280 279 279 279 277 277 278 277 277 277 277 276 275 273 271 270 268 267 267
282 280 279 279 280 281 283 284 285 287 287 288 289 289 289 289 289 290 290 289 288 286 283 282 281 280 279 278 278 278 278 279 279 279 279 278 277 276 274 273 272 271 269 268
283 281 280 280 281 283 283 284 285 286 287 288 289 290 290 290 290 290 290 289 288 287 285 283 282 281 280 280 279 279 279 280 280 280 281 280 279 278 276 275 274 273 271 270
286 284 283 282 283 284 285 285 286 288 289 290 291 292 292 292 291 290 289 288 288 287 287 285 283 283 282 282 281 281 281 281 281 281 280 280 280 279 278 276 276 274 272 271
289 288 287 286 286 286 287 287 288 289 290 291 292 293 294 293 292 291 289 288 288 287 287 286 285 284 283 282 282 282 281 281 281 281 282 282 281 281 279 277 276 274 272 271
290 290 290 289 289 289 289 290 290 291 292 293 294 295 295 294 293 292 290 289 288 288 287 287 286 285 285 284 283 282 281 281 282 282 283 283 283 283 281 279 276 274 272 271
291 291 291 290 290 291 292 293 294 294 294 295 295 296 296 295 294 292 291 289 289 289 289 289 287 286 285 284 283 282 282 282 282 282 283 283 284 285 284 281 279 277 274 272
293 292 291 291 291 292 294 295 295 296 296 297 297 297 297 295 294 293 292 291 290 290 290 289 288 286 284 283 282 282 283 282 282 283 283 284 284 285 284 283 282 280 277 274
294 294 293 293 292 293 294 295 296 297 298 299 298 298 297 296 295 294 293 293 293 292 291 290 289 287 284 283 282 282 282 282 282 283 284 284 284 284 284 283 282 281 279 276
295 295 294 293 292 292 293 295 296 297 298 298 298 297 296 296 296 295 294 294 295 295 294 292 291 289 286 285 284 283 282 282 283 284 284 284 285 285 284 282 281 280 278 276
295 294 294 293 292 293 293 295 296 296 297 297 297 297 296 296 295 295 295 295 295 295 295 294 292 291 289 287 286 284 284 284 284 285 285 285 285 284 283 282 281 280 278 276
296 296 295 294 294 295 295 296 296 296 297 297 298 298 297 296 296 295 295 296 295 295 295 294 293 292 292 291 288 287 286 286 287 287 287 287 286 286 285 283 282 281 279 277
297 298 298 297 296 296 296 296 297 297 297 297 298 298 297 296 296 296 296 296 296 295 294 293 293 293 293 292 291 291 290 289 290 290 290 289 288 286 285 283 283 282 281 279
Height
5595 5593 5592 5591 5590 5589 5587 5587 5585 5586 5584 5584 5581 5578 5577 5575 5573 5572 5572 5571 5570 5569 5569 5569 5568 5568 5568 5568 5569 5569 5570 5570 5570 5570 5571 5571 5571 5571 5572 5572 5573 5574 5575 5576
5585 5583 5581 5580 5580 5579 5577 5576 5575 5574 5573 5572 5569 5567 5565 5563 5561 5560 5559 5558 5557 5556 5555 5555 5554 5554 5554 5554 5554 5555 5555 5555 5555 5556 5556 5556 5556 5556 5556 5557 5558 5558 5559 5561
5574 5573 5570 5570 5572 5569 5567 5566 5564 5562 5563 5560 5558 5556 5554 5551 5550 5548 5547 5545 5544 5542 5541 5541 5540 5540 5540 5540 5540 5541 5541 5541 5541 5540 5541 5541 5541 5541 5541 5541 5542 5543 5544 5546
5563 5562 5560 5564 5561 5559 5557 5556 5554 5552 5550 5548 5546 5544 5542 5540 5538 5536 5534 5533 5531 5529 5528 5528 5527 5526 5526 5526 5526 5526 5526 5526 5525 5525 5525 5525 5525 5525 5525 5526 5527 5528 5529 5530
5552 5550 5550 5553 5551 5548 5546 5546 5543 5541 5539 5537 5534 5533 5532 5529 5526 5524 5522 5520 5518 5516 5515 5514 5513 5513 5512 5512 5511 5511 5511 5511 5510 5510 5509 5509 5509 5509 5510 5510 5511 5512 5513 5514
5543 5540 5540 5543 5541 5537 5536 5535 5533 5530 5527 5525 5522 5521 5521 5517 5515 5512 5510 5507 5505 5504 5503 5501 5500 5499 5499 5498 5498 5497 5497 5496 5495 5495 5494 5494 5494 5494 5494 5495 5496 5496 5497 5498
5533 5530 5530 5532 5530 5527 5526 5526 5522 5518 5516 5513 5511 5510 5508 5505 5503 5500 5498 5495 5493 5491 5490 5488 5487 5486 5486 5485 5484 5483 5482 5482 5481 5480 5479 5479 5479 5479 5479 5480 5480 5480 5481 5482
5522 5520 5523 5521 5518 5517 5515 5513 5510 5507 5505 5503 5500 5498 5495 5493 5490 5488 5486 5483 5481 5479 5477 5475 5474 5473 5472 5471 5470 5470 5469 5467 5466 5465 5464 5464 5463 5463 5463 5463 5464 5464 5465 5465
5513 5514 5511 5509 5507 5506 5504 5502 5499 5497 5495 5492 5489 5487 5484 5481 5478 5476 5474 5471 5469 5467 5465 5463 5461 5460 5459 5458 5456 5456 5455 5453 5452 5451 5450 5449 5448 5448 5447 5447 5447 5448 5448 5449
5502 5502 5500 5498 5496 5494 5493 5490 5488 5486 5484 5481 5478 5475 5472 5469 5467 5464 5462 5459 5457 5454 5452 5450 5447 5446 5445 5443 5442 5442 5441 5440 5438 5437 5436 5435 5433 5432 5432 5432 5432 5432 5432 5433
5490 5490 5488 5487 5485 5483 5481 5479 5477 5475 5472 5469 5466 5463 5460 5457 5455 5452 5449 5447 5444 5442 5439 5437 5435 5433 5431 5430 5429 5428 5426 5425 5424 5423 5421 5420 5419 5417 5417 5416 5416 5416 5416 5416
5480 5479 5477 5476 5474 5472 5470 5468 5466 5464 5461 5458 5454 5451 5448 5445 5442 5440 5437 5434 5432 5429 5427 5424 5422 5420 5418 5417 5415 5414 5413 5412 5410 5409 5407 5406 5404 5403 5401 5401 5400 5400 5400 5400
5468 5467 5465 5464 5462 5460 5459 5457 5454 5452 5449 5446 5443 5440 5436 5433 5431 5428 5425 5422 5419 5416 5414 5412 5410 5408 5406 5404 5403 5401 5400 5398 5397 5395 5394 5392 5391 5389 5388 5387 5385 5385 5385 5385
5457 5455 5454 5452 5451 5449 5447 5445 5442 5440 5437 5434 5431 5428 5425 5422 5419 5416 5413 5410 5407 5404 5401 5399 5397 5396 5394 5392 5390 5388 5387 5385 5384 5382 5380 5379 5377 5375 5374 5373 5372 5370 5370 5370
5446 5444 5443 5441 5440 5438 5435 5433 5431 5428 5425 5422 5419 5416 5413 5410 5407 5404 5401 5397 5394 5392 5389 5387 5385 5383 5382 5380 5378 5376 5375 5373 5371 5369 5367 5365 5363 5362 5360 5359 5358 5357 5357 5356
5435 5433 5431 5430 5428 5427 5424 5422 5420 5417 5414 5411 5408 5405 5401 5398 5395 5392 5388 5385 5382 5380 5377 5375 5373 5371 5369 5368 5366 5364 5362 5360 5358 5356 5354 5352 5350 5349 5347 5346 5344 5343 5343 5343
5424 5423 5421 5419 5418 5416 5413 5411 5408 5405 5402 5399 5396 5393 5389 5386 5383 5379 5376 5373 5370 5368 5365 5363 5361 5359 5357 5355 5354 5352 5350 5348 5346 5344 5342 5340 5338 5336 5334 5333 5332 5330 5329 5329
5414 5412 5411 5409 5407 5404 5402 5400 5397 5394 5391 5388 5384 5381 5377 5374 5371 5367 5364 5362 5359 5356 5354 5352 5349 5347 5345 5343 5342 5340 5338 5336 5333 5331 5330 5328 5326 5324 5322 5321 5319 5318 5317 5316
5405 5403 5401 5398 5396 5394 5391 5389 5386 5383 5380 5377 5373 5369 5366 5362 5359 5356 5353 5350 5347 5345 5343 5340 5338 5336 5334 5332 5330 5328 5326 5324 5322 5320 5318 5316 5314 5312 5310 5309 5307 5306 5305 5305
5396 5394 5391 5389 5386 5384 5381 5378 5375 5372 5369 5366 5362 5358 5355 5351 5347 5344 5341 5338 5336 5333 5331 5328 5326 5324 5322 5320 5318 5317 5315 5313 5311 5309 5307 5305 5303 5301 5299 5297 5296 5295 5294 5294
5387 5385 5382 5380 5377 5374 5371 5368 5365 5362 5358 5355 5351 5348 5344 5340 5337 5333 5330 5328 5325 5322 5320 5317 5315 5313 5311 5309 5307 5306 5304 5302 5300 5298 5296 5294 5292 5290 5288 5287 5285 5284 5283 5282
5378 5375 5373 5370 5367 5364 5361 5358 5355 5351 5348 5344 5341 5337 5333 5329 5326 5323 5320 5317 5314 5312 5309 5307 5304 5302 5300 5298 5296 5295 5293 5291 5289 5288 5286 5284 5282 5280 5278 5276 5275 5273 5272 5271
5368 5365 5363 5360 5357 5354 5351 5348 5345 5341 5337 5334 5330 5327 5323 5319 5316 5313 5311 5308 5304 5301 5299 5296 5294 5291 5289 5287 5285 5284 5282 5281 5279 5278 5276 5274 5272 5270 5268 5266 5265 5263 5262 5260
5358 5356 5353 5350 5347 5344 5341 5338 5334 5331 5327 5323 5320 5317 5313 5310 5307 5304 5301 5298 5295 5292 5289 5286 5284 5281 5279 5277 5275 5274 5272 5271 5269 5268 5266 5264 5262 5260 5258 5257 5255 5253 5252 5251
5349 5346 5343 5340 5337 5334 5331 5327 5324 5321 5317 5314 5310 5307 5304 5301 5298 5295 5292 5289 5286 5283 5280 5277 5275 5272 5270 5268 5266 5264 5263 5261 5260 5258 5256 5254 5252 5250 5249 5247 5245 5244 5243 5241
5339 5336 5333 5330 5327 5324 5321 5318 5314 5311 5308 5305 5302 5298 5295 5292 5289 5286 5283 5280 5277 5274 5272 5269 5267 5264 5262 5260 5257 5255 5254 5252 5250 5248 5247 5245 5243 5241 5239 5238 5236 5235 5234 5233
5330 5327 5324 5321 5318 5315 5311 5308 5305 5302 5299 5296 5293 5290 5286 5283 5280 5277 5274 5272 5269 5266 5264 5261 5259 5256 5254 5252 5249 5247 5245 5243 5241 5239 5238 5236 5234 5232 5231 5229 5228 5226 5225 5224